Location: Newark
(20.0000°S, 47.0000°E)
Time: 11:56:27
(UTC+00:00)

N. Korean satellite - Pass Details

Date: 14 August 2020
Orbit: 455 x 503 km, 97.2° (Epoch: 20 September)

Event Time Altitude Azimuth Distance (km) Brightness Sun altitude
Rises 15:08:49 0° 198° (SSW) 2,538 10.3 -7.6°
Reaches altitude 10° 15:12:03 10° 231° (SW) 1,638 9.8 -8.3°
Maximum altitude 15:13:23 12° 253° (WSW) 1,519 10.1 -8.6°
Drops below altitude 10° 15:14:42 10° 276° (W) 1,620 10.9 -8.9°
Sets 15:17:51 0° 309° (NW) 2,475 11.4 -9.7°
